This is the latest recevied weather packets stored in our database for station/object K9RCP-20. If no packets are shown the sender has not sent any weather packets the latest 10 day(s).
| Time | Temp. | Humidity | Pressure | Rain* | Wind** | Luminosity | Snow |
|---|---|---|---|---|---|---|---|
| 1778407700 | 11.67° C | 91% | 1013.9 hPa | 0 mm | - | 0 W/m² | - |
| 1778407399 | 12.22° C | 90% | 1013.8 hPa | 0 mm | - | 0 W/m² | - |
| 1778407094 | 12.22° C | 89% | 1013.8 hPa | 0 mm | - | 0 W/m² | - |
| 1778406789 | 12.22° C | 89% | 1013.7 hPa | 0 mm | - | 0 W/m² | - |
| 1778406488 | 11.67° C | 90% | 1013.5 hPa | 0 mm | - | 0 W/m² | - |
| 1778406184 | 12.22° C | 89% | 1013.1 hPa | 0 mm | - | 0 W/m² | - |
| 1778405880 | 12.22° C | 89% | 1013.4 hPa | 0 mm | - | 0 W/m² | - |
| 1778405577 | 12.78° C | 88% | 1013.3 hPa | 0 mm | - | 0 W/m² | - |
| 1778405273 | 13.33° C | 86% | 1013.5 hPa | 0 mm | - | 0 W/m² | - |
| 1778404969 | 13.33° C | 86% | 1013.6 hPa | 0 mm | - | 0 W/m² | - |
| 1778404665 | 12.78° C | 87% | 1013.6 hPa | 0 mm | - | 0 W/m² | - |
| 1778404362 | 12.78° C | 88% | 1013.4 hPa | 0 mm | - | 0 W/m² | - |
| 1778404058 | 12.78° C | 89% | 1013.2 hPa | 0 mm | - | 0 W/m² | - |
| 1778403755 | 12.22° C | 89% | 1013.7 hPa | 0 mm | - | 0 W/m² | - |
| 1778403451 | 12.22° C | 89% | 1013.6 hPa | 0 mm | - | 0 W/m² | - |
| 1778403145 | 12.78° C | 89% | 1013.7 hPa | 0 mm | - | 0 W/m² | - |
| 1778402842 | 12.78° C | 89% | 1013.3 hPa | 0 mm | - | 0 W/m² | - |
| 1778402539 | 12.78° C | 89% | 1013.5 hPa | 0 mm | - | 0 W/m² | - |
| 1778402235 | 12.78° C | 89% | 1013.4 hPa | 0 mm | - | 0 W/m² | - |
| 1778401933 | 12.78° C | 88% | 1013.4 hPa | 0 mm | - | 0 W/m² | - |
| 1778401628 | 12.78° C | 87% | 1013.4 hPa | 0 mm | - | 0 W/m² | - |
| 1778401325 | 12.78° C | 87% | 1013.3 hPa | 0 mm | - | 0 W/m² | - |
| 1778401019 | 13.33° C | 86% | 1013.2 hPa | 0 mm | - | 0 W/m² | - |
| 1778400715 | 13.89° C | 84% | 1013.2 hPa | 0 mm | - | 0 W/m² | - |
| 1778400414 | 13.89° C | 84% | 1013.5 hPa | 0 mm | - | 0 W/m² | - |
* Rain latest hour (hover to see other rain measurements)
** Current wind speed in m/s (hover to see current wind gust speed)